TITAN 3C TRANSTAGE DEB, 21692

Orbit data source: Space-Track

TITAN 3C TRANSTAGE DEB, 21692 is space debris in HEO originally from a launch on Tue, 21 Dec 1965 UTC launched from the Air Force Eastern Test Range (AFETR). Debris objects in space refer to the collection of defunct objects orbiting the Earth. Examples of debris include non-operational satellites, rocket bodies, and fragments generated from explosions, collisions, or faulty payload assembly.

Loading next visibility...
Identifier
21692, 1965-108AF
Orbit
HEO
Country
Flag of USUS
Related business
Manufacturer
Unknown
Mission
Spacecraft
Bus & Motor
Unknown
Mass
Unknown
Launch date (UTC)
1965-12-21 (60 years ago)
Launch vehicle
Unknown
Launch site
Air Force Eastern Test Range (AFETR)
Object type
Payload
Rocket body
Debris
Shape & HBR
Unknown shape, 0.1 m
Radar Cross Section
Medium (>0.1 m² and <1 m²)

Expand to show TLE details & history
Last TLE update: 1 month ago

TLE from 1 month ago
0 TITAN 3C TRANSTAGE DEB
1 21692U 65108AF  25253.51592227  .00007668  00000-0  22499-1 0  9994
2 21692  27.9295 340.7137 6195948 224.8670  41.0949  3.57752246154415
Epoch: 2025-09-10T12:22Z
TLE epoch observation values (Epoch: 2025-09-10T12:22:55.684Z)
Latitude
-8.90226°
Longitude
148.06616°
Altitude
8,893.952 km
Speed
5.489 km/s
True Right ascension
21h 34m 21s
True Declination
-8° 52' 40"
Sunlit
Object was in daylight at epoch
Visualization orbit readout
Latitude
Unknown
Longitude
Unknown
Altitude
Unknown
Speed
Unknown
Apparent Right ascension
Unknown
Apparent Declination
Unknown
Sunlit
N/A
Visualization observer readout
Local Sidereal Time
11:08:44
Azimuth
Unknown
Elevation
Unknown
Doppler factor
Unknown
Orbital elements
Apogee altitude
22,874.719 km
Perigee altitude
492.679 km
Semi-major axis
18,061.836 km
Eccentricity
0.61959
Inclination
27.9295°
RAAN
340.7137°
Arg. of periapsis
224.867°
True anomaly
115.87399°
Mean anomaly
41.0949°
Eccentric anomaly
75.45774°
Mean motion
0.89413 °/min
Orbital period
402.63 mins
BSTAR
0.022499
Loading maneuver chart data...
Computing Atmospheric mass density...

Documentation

Showing up to 5 results
|